Current weather by "City, St" or "zip code"  
 
Advertise Here

Current Conditions: Valdosta Regional Airport, GA

Mostly Cloudy


82.0 F

Last Updated on Jul 26 2021, 11:53 pm EDT
Humidity: 85%
Wind Speed: N 0.0 mph
Barometer 29.98 in
Dewpoint: 77.0 F
Visibility: 10.00 mi
Precip: --
Heat Index: 90 F
Wind Chill: NA
Current conditions at:

Valdosta Regional Airport, GA (KVLD)

Lat: 30.77632 Lon: 83.27389

Local Radar Image active severe weather and emergency alerts image image weather storm and storm spotter reports image weather observation monitoring service image
Local
Radar
Active
Alerts
Storm Reports Obs
Monitoring

Sign-up For Email & Text Message Weather Alert Notification Services


Advertise Here

Observation History for Valdosta Regional Airport, GA


Time Wind
(mph)
Vis
(mi)
Weather Precip (in) Temperature (F) Relative
Humidity
Wind
Chill
(F)
Heat
Index
(F)
Pressure
Air Dwpt altimeter
(in)
sea level
(mb)
Rmks
11:53 pm EDT N 0.0 10.00 Mostly Cloudy -- 82.0 77.0 85% NA 90 29.98 1015.8
10:53 pm EDT SE 3.5 10.00 Overcast -- 83.0 78.1 85% NA 93 29.98 1015.7
9:53 pm EDT N 0.0 10.00 Overcast -- 82.0 75.9 82% NA 89 29.96 1014.9
8:53 pm EDT N 0.0 10.00 Partly Cloudy -- 84.0 75.9 77% NA 93 29.94 1014.3
7:53 pm EDT N 0.0 10.00 Fair -- 89.0 75.0 63% NA 99 29.92 1013.7
6:53 pm EDT N 6.9 10.00 Mostly Cloudy -- 90.0 73.0 58% NA 98 29.91 1013.4
5:53 pm EDT 3.5 10.00 A Few Clouds -- 91.0 73.0 56% NA 100 29.91 1013.6
4:53 pm EDT NE 6.9 10.00 Fair -- 91.0 73.9 57% NA 101 29.92 1013.8
3:53 pm EDT N 10.4 10.00 A Few Clouds -- 90.0 72.0 56% NA 97 29.94 1014.5
2:53 pm EDT N 9.2 10.00 Overcast -- 89.0 73.0 59% NA 97 29.95 1014.7
1:53 pm EDT N 15.0 10.00 A Few Clouds -- 89.0 71.1 55% NA 95 29.97 1015.5
12:53 pm EDT N 8.1 10.00 A Few Clouds -- 89.0 72.0 57% NA 96 29.98 1015.6
11:53 am EDT N 11.5 10.00 Fair -- 87.0 72.0 61% NA 93 29.99 1016.2
10:53 am EDT N 5.8 10.00 Fair -- 86.0 73.0 65% NA 93 29.99 1016.2
9:53 am EDT N 3.5 10.00 Fair -- 81.0 73.9 79% NA 86 30.00 1016.6
8:53 am EDT N 0.0 9.00 Fair -- 77.0 73.0 88% NA NA 30.00 1016.3
7:53 am EDT N 0.0 8.00 Fair -- 74.0 71.1 91% NA NA 29.97 1015.5
6:53 am EDT N 0.0 5.00 Fog/Mist -- 71.0 70.0 96% NA NA 29.96 1015.1
5:53 am EDT N 0.0 5.00 Fog/Mist -- 71.0 68.0 90% NA NA 29.95 1014.7
4:53 am EDT N 0.0 6.00 Fog/Mist -- 71.0 69.1 94% NA NA 29.94 1014.3
3:53 am EDT N 0.0 8.00 Fair -- 73.0 70.0 90% NA NA 29.94 1014.4
2:53 am EDT N 0.0 10.00 Fair -- 73.0 70.0 90% NA NA 29.96 1015.2
1:53 am EDT N 0.0 10.00 Fair -- 73.0 70.0 90% NA NA 29.97 1015.5
12:53 am EDT N 0.0 10.00 Fair -- 73.0 70.0 90% NA NA 29.99 1016.1

Regional Weather Observation


Valdosta Regional Airport, GA (KVLD)

Mostly Cloudy
82.0 F

Thomasville Regional Airport, GA (KTVI)

Thunderstorm in Vicinity
81.0 F

Moultrie, Moultrie Municipal Airport, GA (KMGR)

Thunderstorm in Vicinity
79.0 F

Tifton Henry Tift Myers, GA (KTMA)

Thunderstorm in Vicinity
80.0 F

Suwannee County Airport, FL (K24J)

Thunderstorm
79.0 F

Fitzgerald Municipal Airport, GA (KFZG)

Fair
80.0 F
Advertise Here

Advertise Here